EW4324 Weather Reports


time (UTC)temp
F
wind
direction
speed
knots
gust
knots
rain 1hr
in
rain 24hr
in
rain mn
in
humidity
%
barometer
mb
20260507142703 54 258 4.3 12.2 0.00 0.06 0.01 57 1008.6
20260507141803 54 249 4.3 14.8 0.00 0.06 0.01 62 1008.6
20260507140903 54 236 3.5 9.6 0.00 0.06 0.01 65 1008.6
20260507140212 53 274 4.3 11.3 0.00 0.06 0.01 65 1008.6
20260507135403 53 245 5.2 16.5 0.00 0.06 0.01 65 1008.4
20260507134503 53 240 4.3 12.2 0.00 0.06 0.01 70 1008.3
20260507133603 53 247 3.5 9.6 0.00 0.06 0.01 73 1008.3
20260507132703 52 237 4.3 10.4 0.00 0.06 0.01 73 1008.3
20260507131803 52 247 4.3 11.3 0.00 0.06 0.01 72 1008.5
20260507130903 52 241 5.2 10.4 0.00 0.06 0.01 75 1008.5
20260507130003 52 246 4.3 12.2 0.00 0.06 0.01 74 1008.5
20260507125613 52 253 4.3 12.2 0.00 0.06 0.01 74 1008.6
20260507124503 52 276 2.6 8.7 0.00 0.06 0.01 75 1008.5
20260507123814 51 223 2.6 7.8 0.00 0.06 0.01 77 1008.5
20260507122705 50 260 3.5 10.4 0.00 0.06 0.01 77 1008.5
20260507121803 50 247 4.3 13.0 0.00 0.06 0.01 78 1008.6
20260507120903 49 261 3.5 12.2 0.00 0.06 0.01 80 1008.5
20260507120213 49 263 3.5 13.9 0.00 0.06 0.01 79 1008.5
20260507115403 48 260 3.5 9.6 0.00 0.06 0.01 81 1008.5
20260507114503 48 248 2.6 9.6 0.00 0.06 0.01 81 1008.6
20260507113814 48 244 2.6 8.7 0.00 0.06 0.01 84 1008.6
20260507112703 48 239 1.7 5.2 0.00 0.06 0.01 86 1008.3
20260507112012 48 255 1.7 7.8 0.00 0.06 0.01 87 1008.3
20260507110903 47 235 1.7 3.5 0.00 0.06 0.01 88 1008.4
20260507110003 47 258 0.9 6.1 0.00 0.06 0.01 89 1008.3
20260507105612 47 259 0.9 2.6 0.00 0.06 0.01 89 1008.2
20260507104714 47 259 0.9 1.7 0.00 0.06 0.01 89 1008.2
20260507103603 47 259 0.9 3.5 0.00 0.06 0.01 88 1008.3
20260507102703 47 263 0.9 5.2 0.00 0.06 0.01 88 1008.0
20260507101803 47 261 0.9 6.1 0.01 0.06 0.01 88 1007.6
20260507100903 47 284 1.7 6.1 0.01 0.06 0.01 88 1007.5
20260507100003 47 282 1.7 5.2 0.01 0.06 0.01 88 1007.6
20260507095403 47 284 2.6 7.8 0.01 0.06 0.01 88 1007.5
20260507094713 47 271 2.6 6.1 0.01 0.06 0.01 88 1007.5
20260507093603 47 265 1.7 7.0 0.01 0.06 0.01 88 1007.6
20260507092703 47 256 1.7 6.1 0.01 0.06 0.01 89 1007.7
20260507091803 47 263 1.7 6.1 0.00 0.05 0.00 90 1007.8
20260507091113 47 272 1.7 5.2 0.00 0.05 0.00 90 1007.7
20260507090212 47 258 1.7 6.1 0.00 0.05 0.00 90 1007.9
20260507085403 47 240 1.7 6.1 0.00 0.05 0.00 90 1008.1
20260507084713 47 241 2.6 7.0 0.00 0.05 0.00 90 1008.4
20260507083603 47 232 1.7 5.2 0.00 0.05 0.00 90 1008.2
20260507082703 47 279 1.7 5.2 0.00 0.05 0.00 90 1007.9
20260507082013 47 292 1.7 6.1 0.00 0.05 0.00 90 1007.9
20260507080903 47 280 0.9 3.5 0.00 0.05 0.00 91 1007.7
20260507080214 47 274 0.9 3.5 0.00 0.05 0.00 91 1007.8
20260507075403 47 273 0.9 2.6 0.00 0.05 0.00 90 1007.7
20260507074503 48 273 0.0 2.6 0.00 0.05 0.00 89 1007.7
20260507073603 48 267 0.9 3.5 0.00 0.05 0.00 88 1007.8
20260507072703 48 239 2.6 7.8 0.00 0.05 0.00 87 1007.7
20260507071803 48 242 2.6 7.8 0.00 0.05 0.00 86 1007.8
20260507071112 48 253 1.7 7.8 0.00 0.05 0.00 86 1007.7
20260507070005 48 257 1.7 6.1 0.00 0.05 0.00 86 1007.4
20260507065403 48 261 1.7 6.1 0.00 0.05 0.00 86 1007.4
20260507064503 48 293 1.7 5.2 0.00 0.05 0.00 85 1007.2
20260507063603 49 262 1.7 7.0 0.00 0.05 0.00 85 1007.0
20260507062703 49 249 1.7 7.8 0.00 0.05 0.00 87 1007.0
20260507061803 49 265 1.7 7.8 0.00 0.05 0.00 87 1007.2
20260507060903 49 251 1.7 7.0 0.00 0.05 0.00 87 1007.6
20260507060003 50 262 1.7 7.0 0.00 0.05 0.00 87 1007.5
20260507055403 50 270 1.7 7.0 0.00 0.05 0.00 87 1007.4
20260507054503 50 285 1.7 7.0 0.00 0.05 0.00 87 1007.4
20260507053603 50 277 2.6 8.7 0.00 0.05 0.00 87 1007.5
20260507052703 51 287 2.6 8.7 0.00 0.05 0.00 88 1007.6
20260507051803 51 290 1.7 6.1 0.00 0.05 0.00 91 1008.1
20260507050903 51 311 0.9 3.5 0.00 0.05 0.00 92 1007.7
20260507050003 52 302 0.9 4.3 0.00 0.05 0.00 92 1007.7
20260507045403 52 290 0.9 3.5 0.00 0.05 0.00 92 1008.0
20260507044714 52 291 0.0 3.5 0.00 0.05 0.00 92 1007.7
20260507043606 52 292 0.9 1.7 0.00 0.05 0.00 92 1007.6
20260507042703 53 285 0.9 3.5 0.00 0.05 0.00 91 1007.5
20260507041803 53 244 0.0 2.6 0.00 0.05 0.00 91 1007.5
20260507040903 54 236 1.7 8.7 0.00 0.05 0.00 91 1007.4
20260507040003 54 221 0.9 5.2 0.00 0.05 0.00 93 1007.5
20260507035403 55 219 0.9 3.5 0.00 0.05 0.05 93 1007.6
20260507034503 55 225 1.7 4.3 0.00 0.05 0.05 93 1007.6
20260507033812 55 254 1.7 5.2 0.00 0.05 0.05 92 1007.5
20260507032914 56 234 1.7 7.8 0.00 0.05 0.05 92 1007.3
20260507032013 56 231 1.7 6.1 0.00 0.05 0.05 92 1007.2
20260507030904 56 236 2.6 4.3 0.00 0.05 0.05 91 1007.1
20260507030004 56 252 1.7 6.1 0.00 0.05 0.05 92 1007.0
20260507025403 57 247 1.7 7.0 0.00 0.05 0.05 92 1006.9
20260507024503 57 231 1.7 7.0 0.00 0.05 0.05 92 1006.8
20260507023603 58 275 3.5 9.6 0.00 0.05 0.05 92 1006.6
20260507022914 58 255 3.5 9.6 0.00 0.05 0.05 93 1006.5
20260507022013 59 232 5.2 14.8 0.00 0.05 0.05 94 1006.6
20260507021112 59 227 3.5 7.8 0.00 0.05 0.05 95 1006.6
20260507020003 58 210 1.7 7.0 0.00 0.05 0.05 95 1006.3
20260507015613 58 206 1.7 4.3 0.00 0.05 0.05 95 1006.3
20260507014503 58 203 2.6 7.8 0.00 0.05 0.05 95 1006.2
20260507013604 58 210 2.6 7.0 0.00 0.05 0.05 95 1006.3
20260507012703 58 222 2.6 8.7 0.00 0.05 0.05 95 1006.1
20260507011803 58 210 2.6 7.8 0.00 0.05 0.05 95 1006.1
20260507010903 58 206 3.5 8.7 0.00 0.05 0.05 95 1006.4
20260507010213 58 205 3.5 8.7 0.00 0.05 0.05 95 1006.3
20260507005403 58 205 4.3 10.4 0.00 0.05 0.05 95 1006.3
20260507004503 58 226 3.5 9.6 0.00 0.05 0.05 95 1006.3
20260507003603 58 214 2.6 7.8 0.00 0.05 0.05 95 1006.2
20260507002913 58 211 3.5 10.4 0.00 0.05 0.05 95 1006.2
20260507001803 58 212 2.6 7.0 0.00 0.05 0.05 95 1006.3
20260507000903 58 218 3.5 7.0 0.00 0.05 0.05 95 1006.1
20260507000004 58 218 2.6 7.8 0.01 0.05 0.05 96 1006.0
20260506235612 58 221 2.6 7.0 0.01 0.05 0.05 96 1006.0
20260506234714 58 209 3.5 9.6 0.01 0.05 0.05 96 1006.0
20260506233603 58 189 1.7 6.1 0.01 0.05 0.05 96 1005.9
20260506232703 58 182 1.7 6.1 0.01 0.05 0.05 96 1005.9
20260506231803 58 183 1.7 5.2 0.01 0.05 0.05 96 1005.9
20260506230903 58 180 2.6 7.0 0.01 0.05 0.05 96 1005.8
20260506230003 58 188 1.7 6.1 0.00 0.04 0.04 96 1005.8
20260506225403 58 179 2.6 7.0 0.00 0.04 0.04 96 1005.8
20260506224503 58 181 2.6 7.0 0.00 0.04 0.04 95 1006.0
20260506223603 58 179 1.7 6.1 0.00 0.04 0.04 95 1006.0
20260506222703 58 190 1.7 7.8 0.00 0.04 0.04 95 1006.1
20260506221803 58 175 1.7 6.1 0.00 0.04 0.04 95 1006.1
20260506220903 58 173 2.6 8.7 0.00 0.04 0.04 95 1006.3
20260506220005 58 180 2.6 7.8 0.00 0.04 0.04 95 1006.2
20260506215403 58 174 1.7 7.8 0.00 0.04 0.04 95 1006.3
20260506214503 58 182 2.6 7.8 0.01 0.04 0.04 95 1006.3
20260506213603 58 160 2.6 7.8 0.01 0.04 0.04 95 1006.3
20260506212703 58 190 2.6 7.0 0.01 0.04 0.04 94 1006.4
20260506211803 58 167 2.6 7.8 0.01 0.04 0.04 94 1006.4
20260506210903 58 195 2.6 7.0 0.01 0.04 0.04 94 1006.5
20260506210214 58 182 1.7 6.1 0.01 0.04 0.04 94 1006.6
20260506205613 58 174 1.7 7.8 0.02 0.04 0.04 94 1006.5
20260506204713 58 184 2.6 9.6 0.01 0.03 0.03 94 1006.7
20260506203814 58 183 2.6 7.0 0.01 0.03 0.03 94 1006.9
20260506202703 58 185 3.5 12.2 0.01 0.03 0.03 94 1007.0
20260506202013 58 186 2.6 6.1 0.01 0.03 0.03 94 1007.0
20260506200903 58 176 3.5 8.7 0.02 0.03 0.03 93 1007.0
20260506200004 59 169 2.6 8.7 0.02 0.03 0.03 93 1007.0
20260506195403 59 177 2.6 8.7 0.01 0.02 0.02 93 1007.1
20260506194503 59 183 5.2 12.2 0.01 0.02 0.02 92 1007.2
20260506193603 59 179 4.3 12.2 0.01 0.02 0.02 92 1007.2
20260506192703 60 172 5.2 14.8 0.01 0.02 0.02 91 1007.1
20260506191803 60 182 3.5 13.0 0.02 0.02 0.02 91 1007.2
20260506190903 60 192 3.5 8.7 0.01 0.01 0.01 91 1007.2
20260506190003 60 193 3.5 10.4 0.01 0.01 0.01 90 1007.3
20260506185403 60 176 3.5 13.0 0.01 0.01 0.01 90 1007.2
20260506184503 61 173 2.6 7.8 0.01 0.01 0.01 90 1007.1
20260506183603 61 197 3.5 11.3 0.01 0.01 0.01 88 1007.4
20260506182912 62 194 2.6 11.3 0.01 0.01 0.01 86 1007.5
20260506181803 62 205 2.6 8.7 0.00 0.00 0.00 85 1007.9
20260506180903 63 214 2.6 8.7 0.00 0.00 0.00 82 1007.7
20260506180003 64 207 5.2 13.9 0.00 0.00 0.00 78 1008.0
20260506175403 65 217 7.0 13.9 0.00 0.00 0.00 74 1008.1
20260506174503 66 222 6.1 18.2 0.00 0.00 0.00 70 1008.1
20260506173603 68 204 4.3 18.2 0.00 0.00 0.00 65 1007.9
20260506172703 69 198 4.3 14.8 0.00 0.00 0.00 64 1007.8
20260506171803 69 181 6.1 18.2 0.00 0.00 0.00 62 1007.6
20260506170903 70 182 4.3 13.0 0.00 0.00 0.00 62 1007.7
20260506170004 69 213 5.2 19.1 0.00 0.00 0.00 61 1007.7
20260506165403 69 204 6.1 19.1 0.00 0.00 0.00 61 1007.7
20260506164503 70 187 6.1 17.4 0.00 0.00 0.00 60 1007.9
20260506163812 70 187 4.3 16.5 0.00 0.00 0.00 61 1007.8
20260506162703 69 196 4.3 14.8 0.00 0.00 0.00 62 1008.0
20260506162013 69 189 4.3 12.2 0.00 0.00 0.00 63 1008.2
20260506160903 68 202 5.2 13.9 0.00 0.00 0.00 63 1008.2
20260506160003 68 209 4.3 13.9 0.00 0.00 0.00 64 1008.6
20260506155613 68 209 4.3 13.9 0.00 0.00 0.00 64 1008.6
20260506154503 68 187 4.3 14.8 0.00 0.00 0.00 63 1008.9
20260506153603 68 197 3.5 13.9 0.00 0.00 0.00 65 1008.9
20260506152913 68 214 4.3 14.8 0.00 0.00 0.00 65 1008.9
20260506151803 68 203 4.3 9.6 0.00 0.00 0.00 65 1009.1
20260506150903 68 186 2.6 8.7 0.00 0.00 0.00 66 1009.3
20260506150003 68 201 4.3 13.0 0.00 0.00 0.00 66 1009.4
20260506145403 68 190 4.3 13.0 0.00 0.00 0.00 67 1009.4
20260506144503 68 170 2.6 7.8 0.00 0.00 0.00 70 1009.3
20260506143603 67 184 3.5 12.2 0.00 0.00 0.00 69 1009.5